Flag for U.S.A. Weather past 2 weeks in Norwalk, California, U.S.A.

Now
84 °F

Sunny.


Feels Like: 85 °F
Forecast: 74 / 96 °F
Wind: 3 mph from West

Location: Fullerton Municipal Airport

Current Time: Sep 16, 2014 at 9:33:25 AM

Latest Report: Sep 16, 2014 at 8:53 AM


Visibility: 10 mi

Pressure: 29.76 "Hg

Humidity: 51%

Dew point: 64 °F

Location of NorwalkLocation

Historic Weather in Norwalk — Graph

°F

Norwalk temperature yesterday

Maximum temperature yesterday: 102 °F (at 1:53 PM)
Minimum temperature yesterday: 73 °F (at 5:53 AM)
Average temperature yesterday: 86 °F

Past Weeks' High & Low Weather Summary

 TemperatureHumidityPressure
High104 °F (Sep 14, 2:53 PM)85% (Sep 5, 4:53 AM)29.91 "Hg (Sep 5, 4:53 AM)
Low65 °F (Sep 10, 6:53 AM)20% (Sep 9, 12:53 PM)29.66 "Hg (Sep 14, 2:53 PM)
Average79 °F57%29.79 "Hg
* Reported Sep 1 7:53 AM — Sep 16 7:53 AM, Norwalk, Weather by CustomWeather, © 2014

Note: Actual official high and low records may vary slightly from our data, if they occured in-between our weather recording intervals... More about our weather records

Advertising

Norwalk weather history for previous 24 hours

 ConditionsComfort  
Time TempWeatherWind HumidityBarometerVisibility
7:53 AM
Sep 16
79 °FSunny.No wind60%29.75 "Hg10 mi
6:53 AM75 °FClear.No wind69%29.75 "Hg10 mi
5:53 AM75 °FClear.No wind69%29.74 "Hg10 mi
4:53 AM76 °FClear.No wind67%29.73 "Hg10 mi
3:53 AM76 °FClear.No wind67%29.74 "Hg10 mi
2:53 AM77 °FClear.3 mph62%29.76 "Hg10 mi
1:53 AM78 °FClear.5 mph60%29.76 "Hg10 mi
12:53 AM78 °FClear.5 mph58%29.77 "Hg10 mi
11:53 PM
Sep 15
81 °FClear.5 mph53%29.76 "Hg10 mi
10:53 PM83 °FClear.3 mph48%29.77 "Hg10 mi
9:53 PM86 °FClear.5 mph42%29.75 "Hg10 mi
8:53 PM87 °FClear.3 mph37%29.73 "Hg10 mi
7:53 PM90 °FSunny.3 mph31%29.72 "Hg10 mi
6:53 PM93 °FSunny.3 mph28%29.70 "Hg10 mi
5:53 PM95 °FSunny.5 mph25%29.70 "Hg10 mi
4:53 PM96 °FExtremely hot.6 mph23%29.70 "Hg10 mi
3:53 PM97 °FSunny.7 mph24%29.71 "Hg10 mi
2:53 PM99 °FSunny.8 mph24%29.72 "Hg10 mi
1:53 PM102 °FSunny.6 mph28%29.73 "Hg10 mi
12:53 PM100 °FSunny.6 mph30%29.75 "Hg10 mi
11:53 AM96 °FSunny.5 mph31%29.77 "Hg10 mi
10:53 AM93 °FSunny.No wind36%29.79 "Hg10 mi
9:53 AM86 °FSunny.No wind49%29.79 "Hg9 mi
Weather by CustomWeather, © 2014

See weather overviewHow to use our weather pages